User: anonymous   Login
Location: Unspecified
(0.0000°N, 0.0000°E)
Time: 10:45:53
(UTC+01:00)
Language:

THEMIS A - Orbit

View from above orbital plane
View from above orbital plane
View from above satellite
View from above satellite

Ground track
Ground track

The orbit data is extracted from the following two-line orbital elements,

1 30580U 07004A   19083.82913755 -.00000514  00000-0  00000+0 0  9998
2 30580   8.8569 108.9435 8364449 280.2421   5.2513  0.87837488 42747
Epoch (UTC): 24 March 2019 19:53:57
Eccentricity: 0.8364449
inclination: 8.8569°
perigee height: 1154 km
apogee height: 78199 km
right ascension of ascending node: 108.9435°
argument of perigee: 280.2421°
revolutions per day: 0.87837488
mean anomaly at epoch: 5.2513°
orbit number at epoch: 4274

The dashed part of the orbit path shows where the satellite is in the earth's shadow,  

DLR